Terminal Aerodrome Forecast
Issued by NWS Paducah, KY

Home | Current Version | Previous Version | Graphics & Text | Print | Product List | Glossary On
Versions: 1 2 3 4 5 6 7 8 9 10 11 12 13 14 15 16 17 18 19 20 21 22 23 24 25 26
000
FTUS43 KPAH 011901 AAA
TAFEVV
TAF AMD
KEVV 011901Z 0119/0218 25007KT P6SM VCSH SCT025 BKN035
      TEMPO 0119/0123 BKN025
     FM020100 27002KT P6SM OVC040
     FM020900 00000KT 2SM BR BKN050
     FM021500 29004KT P6SM BKN015=

USA.gov is the U.S. government's official web portal to all federal, state and local government web resources and services.